SCP
0 -0 -0 -0 -0 -0 0 0 0 -0 0 0 0 -0 -0 0 0 0 0 0 0 0 0 0 0 0 0 0 0 0 0 0 0 0 0 0 0 0 0 0 0 0 1 2
-0 -0 -0 0 0 -0 0 -0 -0 0 0 0 0 0 -0 0 0 0 0 0 0 0 0 0 0 0 0 0 0 0 0 0 0 0 0 0 0 0 0 0 0 0 0 0
0 0 0 0 0 0 0 0 -0 0 -0 0 0 0 0 0 0 0 0 0 0 0 0 0 0 0 0 0 0 0 0 0 0 0 0 0 0 0 0 0 0 1 1 2
-0 0 0 0 0 0 -0 0 0 0 0 0 -0 0 -0 0 0 0 0 0 0 0 0 0 0 0 0 0 0 0 0 0 0 0 0 0 0 0 0 0 0 0 0 1
0 0 0 0 0 0 -0 0 -0 0 0 0 -0 0 0 0 0 0 0 -0 -0 0 0 0 0 0 0 0 0 0 0 0 0 0 0 0 0 0 0 0 0 0 0 0
0 0 0 0 0 0 -0 -0 0 0 0 0 0 -0 0 0 0 0 0 -0 0 0 0 0 0 0 0 0 0 0 0 0 0 0 0 0 0 0 0 0 0 0 0 0
0 0 0 0 0 0 0 0 0 0 0 0 0 0 0 0 0 0 0 0 0 0 0 0 0 0 0 0 0 0 0 0 0 0 0 0 0 0 0 0 0 0 0 0
0 0 0 0 0 0 0 0 0 0 0 -0 -0 0 0 0 0 0 0 0 0 0 0 0 0 0 0 0 0 0 0 0 0 0 0 0 0 0 0 0 0 0 0 0
0 0 0 0 0 0 0 0 0 0 0 0 -0 0 0 0 0 0 0 0 0 0 0 0 0 0 0 0 0 0 0 0 0 0 0 0 0 0 0 0 0 0 0 0
0 0 0 0 0 0 0 0 0 0 0 0 0 0 0 0 0 0 0 0 0 0 0 0 0 0 0 0 0 0 0 0 0 0 0 0 0 0 0 0 0 0 0 0
0 0 0 0 0 0 0 0 0 0 0 0 0 0 0 0 0 0 0 0 0 0 0 0 0 0 0 0 0 0 0 0 0 0 0 0 0 0 0 0 0 0 0 0
0 0 0 0 0 0 0 0 0 0 0 0 0 0 0 0 0 0 0 0 0 0 0 0 0 0 0 0 0 0 0 0 0 0 0 0 0 0 0 0 0 0 0 0
0 0 0 0 0 0 0 0 0 0 0 0 0 0 0 0 0 0 0 0 0 0 0 0 0 0 0 0 0 0 0 0 0 0 0 0 0 0 0 0 0 0 0 0
0 0 0 0 0 0 0 0 0 0 0 0 0 0 0 0 0 0 0 0 0 0 0 0 0 0 0 0 0 0 0 0 0 0 0 0 0 0 0 0 0 0 0 0
0 0 0 0 0 0 0 0 0 0 0 0 0 0 0 0 0 0 0 0 0 0 0 0 0 0 0 0 0 0 0 0 0 0 0 0 0 0 0 0 0 0 0 0
0 0 0 0 0 0 0 0 0 0 0 0 0 0 0 0 0 0 0 0 0 0 0 0 0 0 0 0 0 0 0 0 0 0 0 0 0 0 0 0 0 0 0 0
0 0 0 0 0 0 0 0 0 0 0 0 0 0 0 0 0 0 0 0 0 0 0 0 0 0 0 0 0 0 0 0 0 0 0 0 0 0 -0 0 0 0 0 0
0 0 0 0 0 0 0 -0 0 0 0 0 0 0 0 0 0 0 0 0 0 0 0 0 0 0 0 0 0 0 0 0 0 0 0 0 0 0 0 0 -0 -0 -0 -0
0 0 0 0 0 0 0 0 0 0 0 0 0 0 0 0 0 0 0 0 0 0 0 0 0 0 0 0 0 0 0 0 0 -0 0 0 -0 -0 -0 -0 -0 -0 -0 -0
0 0 0 0 0 0 0 0 0 0 0 0 0 0 0 0 0 0 0 0 0 0 0 0 0 0 0 0 0 0 0 0 0 0 0 -0 -0 -0 -0 -0 -0 0 0 -0
0 0 0 0 0 0 0 0 0 0 0 0 0 0 0 0 0 0 0 0 0 0 0 0 0 0 0 0 0 0 0 0 0 0 -0 -0 -0 -0 -0 -0 0 0 -0 0
0 0 0 0 0 0 0 0 0 0 0 0 0 0 0 0 0 0 0 0 0 0 0 0 0 0 0 0 0 0 0 0 0 -0 -0 -0 -0 -0 -0 -0 -0 -0 -0 -0
0 0 0 0 0 0 0 0 0 0 0 0 0 0 0 0 0 0 0 0 0 0 0 0 0 0 0 0 0 0 0 0 0 0 0 -0 -0 -0 -0 -0 -0 -0 -0 -0
0 0 0 0 0 0 -0 -0 -0 -0 0 0 0 0 0 0 0 0 0 0 0 0 0 0 0 0 0 0 0 0 0 0 0 -0 0 0 0 0 -0 -0 -0 -0 -0 -0
0 0 0 0 0 0 0 0 0 0 0 0 0 0 0 0 0 0 0 0 0 0 0 0 0 0 0 0 0 0 0 0 -0 0 0 0 0 0 -0 -0 0 -0 -0 0
0 0 0 0 0 0 0 0 0 0 0 0 0 0 0 0 0 0 0 0 0 0 0 0 0 0 0 0 0 0 0 0 0 -0 -0 -0 0 0 0 0 0 -0 -0 -0
Wind_Speed_500mb
2 17 9 22 15 18 19 17 15 13 6 6 16 23 26 29 22 11 17 17 6 6 13 19 23 27 26 34 42 46 50 49 52 48 43 38 42 45 47 50 49 41 39 50
17 20 13 12 8 14 16 14 19 8 7 7 20 28 31 23 27 16 16 6 4 11 14 23 27 28 31 33 42 39 46 49 52 52 49 44 49 49 50 51 47 54 60 52
19 16 4 5 10 13 17 13 18 20 25 24 34 33 34 26 22 15 7 6 10 13 12 24 30 26 29 38 36 46 38 44 52 50 44 47 49 50 44 38 43 44 45 44
17 16 5 6 9 7 21 22 9 17 20 22 29 22 29 28 22 19 17 6 10 10 22 28 33 35 40 38 41 30 41 50 52 51 49 57 60 61 52 53 53 49 51 51
12 4 5 12 4 7 19 15 19 23 24 26 29 16 6 25 24 29 23 26 20 18 25 30 31 37 37 36 40 39 45 49 46 53 51 55 56 64 65 72 65 57 65 60
18 6 6 13 8 14 15 21 28 31 25 20 24 14 12 11 20 27 31 22 17 23 30 30 35 38 32 43 39 42 42 50 53 47 50 54 57 54 62 73 78 80 66 58
19 21 11 9 19 19 19 24 12 9 17 13 24 6 15 16 20 11 3 11 24 29 34 42 44 40 47 42 40 40 45 48 43 55 66 62 66 73 78 75 71 76 75 66
19 21 23 15 8 15 14 8 3 7 12 21 29 17 13 19 15 2 2 16 28 29 34 36 39 46 47 46 39 38 42 44 57 66 65 59 64 68 69 75 74 76 79 82
13 10 15 6 4 8 3 7 12 4 15 11 14 10 20 28 21 21 25 32 31 31 34 41 38 41 44 43 43 43 42 50 57 63 64 71 76 83 90 85 83 86 88 84
10 10 16 23 8 15 17 8 9 6 4 10 18 11 4 13 2 10 17 27 29 31 37 39 46 45 42 45 49 48 56 57 64 72 83 92 85 77 80 80 82 82 83 86
21 9 7 6 18 21 18 20 10 6 6 5 7 7 10 10 15 16 26 27 34 38 40 42 43 44 49 48 47 54 58 69 76 79 89 87 82 80 81 81 76 74 75 73
4 8 20 25 9 8 18 19 13 6 13 8 10 14 20 9 17 21 28 29 34 39 46 45 51 56 59 51 51 57 66 76 75 80 91 83 81 81 84 75 71 68 67 69
6 11 13 23 22 13 10 16 14 13 12 20 12 12 21 29 19 32 27 34 40 45 43 45 51 55 52 54 57 59 66 76 80 89 87 85 81 79 70 72 73 71 71 70
8 10 15 13 26 17 14 20 20 17 14 19 21 29 30 9 11 23 30 37 43 44 43 49 51 50 56 55 58 64 78 86 91 85 83 83 78 69 69 68 65 62 60 65
5 15 22 27 34 32 30 28 26 28 27 26 29 34 19 15 17 23 36 43 41 45 50 50 51 57 58 66 68 74 72 88 85 80 75 74 70 65 64 62 57 58 53 54
15 17 19 27 30 33 36 32 31 35 34 34 34 25 21 28 19 25 39 35 35 45 51 51 55 54 57 62 74 66 83 97 77 69 71 65 61 62 59 55 52 40 39 39
18 16 16 27 28 31 30 25 29 31 29 23 20 17 13 22 32 38 32 32 41 41 47 52 52 51 58 59 61 82 98 79 61 67 62 58 59 58 51 43 36 26 22 21
15 16 16 22 27 34 29 28 13 9 15 21 18 19 15 21 29 41 33 32 38 45 49 47 48 52 51 59 77 95 81 62 58 57 61 55 57 50 42 29 19 11 5 8
22 17 21 22 24 30 30 23 12 10 14 25 18 21 27 37 40 32 46 44 43 51 50 44 47 50 54 72 86 82 63 55 58 59 58 51 47 40 27 21 22 26 28 36
21 19 17 23 27 22 21 18 25 16 11 17 25 24 29 38 22 23 49 41 43 45 45 43 51 51 66 73 80 63 56 55 59 54 51 43 35 28 26 25 30 42 41 39
17 21 27 23 23 29 22 12 12 11 3 13 19 23 31 22 28 37 39 39 44 47 41 47 47 50 60 75 64 54 52 58 54 46 39 30 24 25 26 30 33 39 51 53
18 11 22 23 29 18 32 28 13 12 6 15 22 26 28 28 30 34 40 45 47 41 40 45 47 47 64 64 56 49 50 52 45 37 30 25 25 28 32 39 49 56 58 64
20 18 5 11 5 10 10 9 18 4 9 19 22 27 31 34 40 34 35 43 46 38 39 46 45 47 62 56 49 45 44 44 37 28 27 27 28 32 38 45 52 62 66 74
6 4 16 13 19 21 30 31 20 13 7 11 21 30 34 39 38 31 38 43 35 32 38 50 44 52 56 51 45 40 36 31 35 28 26 29 33 36 43 47 55 62 70 78
17 10 11 12 14 27 16 24 18 12 11 14 24 29 32 32 25 29 37 45 29 26 37 48 46 51 47 45 43 42 35 25 31 35 39 44 50 50 52 57 66 70 77 78
22 19 14 13 12 8 13 4 7 14 21 22 21 26 25 24 27 30 34 31 22 28 42 39 43 43 40 39 41 40 35 35 43 54 58 61 68 72 75 76 76 72 72 73
Wind_Direction_500mb
211 257 293 7 354 328 309 298 294 306 88 24 276 280 294 186 176 202 209 185 215 319 328 329 332 317 318 324 328 327 329 325 322 325 326 305 290 281 268 256 248 249 249 248
248 235 45 338 305 300 300 289 269 246 241 242 266 261 269 264 179 184 165 170 33 338 319 319 317 321 325 325 327 323 325 323 323 323 311 320 319 312 308 307 299 275 270 262
295 64 16 303 206 258 255 267 316 340 333 302 264 260 247 223 125 130 139 179 251 261 317 328 331 327 335 332 325 325 322 325 322 322 313 304 295 292 291 295 292 297 294 285
282 83 319 268 301 312 295 11 345 296 288 283 335 303 296 174 153 155 301 155 273 316 335 342 329 339 335 328 328 322 327 329 325 317 312 311 312 310 301 289 282 277 274 276
37 174 252 243 4 6 289 4 305 286 280 284 281 264 354 111 80 87 189 243 248 337 339 332 339 332 327 329 324 324 326 330 324 320 315 311 305 312 309 308 300 287 271 268
284 16 252 312 334 262 299 289 264 243 242 250 311 277 144 125 152 172 213 231 313 338 331 341 340 326 332 327 316 324 324 326 327 324 316 313 309 309 306 303 300 299 296 287
198 207 157 236 269 202 232 259 290 291 222 231 230 216 101 140 150 94 90 321 345 340 340 342 333 338 334 320 324 321 323 325 326 320 317 309 302 296 297 298 296 294 295 286
256 186 183 159 294 332 306 324 116 228 343 321 318 340 97 76 68 4 32 350 344 331 337 335 336 338 324 322 321 328 324 323 324 320 316 310 306 303 297 293 286 284 282 278
319 210 115 152 257 277 267 298 64 286 298 290 258 74 106 63 41 17 346 339 324 333 338 334 339 328 326 330 334 333 332 330 326 319 312 302 296 294 294 292 290 284 279 281
352 281 192 136 239 225 252 30 242 140 287 295 323 345 81 176 74 253 310 314 318 330 335 346 334 327 335 329 327 330 336 331 320 309 301 301 305 303 302 298 295 293 286 276
295 241 224 168 222 239 192 224 212 321 315 263 304 319 52 118 206 328 327 326 311 339 340 335 324 332 339 336 335 332 334 321 316 308 307 310 305 301 301 298 294 290 289 284
122 302 267 245 111 26 311 301 303 289 283 184 264 269 307 305 31 293 280 294 340 338 335 334 342 341 334 334 337 335 324 313 313 311 313 311 309 308 307 305 303 300 292 282
23 220 256 248 256 150 263 261 240 251 266 265 269 274 294 296 325 333 329 341 338 340 335 344 343 337 336 337 334 328 315 315 313 319 317 315 314 310 308 306 300 294 290 284
27 288 274 257 320 305 243 228 244 273 288 271 259 267 272 46 352 337 339 338 337 331 345 341 338 338 339 338 331 320 314 319 319 318 315 317 318 316 309 306 305 299 295 289
203 260 269 274 282 280 276 280 280 272 263 258 275 286 48 11 331 341 338 338 340 340 338 340 344 342 342 334 328 319 316 322 325 319 318 318 320 319 317 314 311 305 301 301
213 260 280 280 282 283 283 275 272 272 274 268 268 294 97 270 255 8 342 2 348 332 338 345 344 345 339 333 322 319 320 328 327 325 323 323 326 324 322 317 315 312 308 308
204 240 259 273 287 290 280 272 259 256 265 286 316 292 29 28 16 354 24 1 338 339 349 350 347 347 340 327 318 323 331 332 331 328 330 332 330 333 335 329 326 318 311 313
274 267 244 266 277 271 274 282 291 299 292 311 356 10 17 33 10 346 22 341 344 0 356 354 354 343 336 320 324 331 334 337 334 335 335 338 340 344 343 343 352 11 37 111
224 241 268 266 261 269 278 299 242 26 337 27 30 25 6 357 346 315 11 353 358 3 358 358 347 344 325 323 334 335 341 348 342 343 346 347 352 355 9 34 63 79 93 102
223 212 241 259 270 279 282 47 11 339 222 39 28 20 356 348 332 340 342 340 355 353 356 354 351 341 324 331 337 344 349 349 346 351 350 357 1 18 38 57 77 93 95 100
204 222 218 230 247 263 292 126 173 209 58 24 17 2 349 346 337 323 330 354 353 355 356 349 350 344 330 336 346 352 355 352 351 354 359 7 24 45 64 83 91 96 98 104
201 167 245 242 254 244 4 342 339 51 12 10 9 352 346 335 328 326 340 354 353 3 7 356 351 344 333 347 354 358 359 353 0 13 17 33 58 77 90 98 101 100 100 99
246 265 243 221 151 234 102 313 298 349 3 4 0 349 335 325 324 335 350 347 352 9 6 355 351 342 347 357 3 7 2 5 21 36 47 60 80 91 101 106 105 101 101 101
178 225 262 283 167 191 185 190 234 264 103 6 347 333 325 321 317 355 338 348 357 5 2 344 350 349 356 7 12 16 8 29 45 45 54 73 81 94 104 108 108 107 105 104
273 144 265 264 288 286 337 40 25 5 353 350 337 327 329 324 0 345 345 349 13 8 6 347 348 357 6 14 23 21 21 44 61 65 76 81 86 90 92 94 98 102 103 102
277 280 273 290 11 354 319 82 37 347 325 320 323 340 327 357 5 352 349 1 26 14 356 355 353 7 18 27 38 35 53 65 79 80 77 85 90 93 95 94 93 94 94 92
Wind_Speed_850mb
2 17 9 22 15 18 19 17 15 13 6 6 16 23 26 29 22 11 17 17 6 6 13 19 23 27 26 34 42 46 50 49 52 48 43 38 42 45 47 50 49 41 39 50
17 20 13 12 8 14 16 14 19 8 7 7 20 28 31 23 27 16 16 6 4 11 14 23 27 28 31 33 42 39 46 49 52 52 49 44 49 49 50 51 47 54 60 52
19 16 4 5 10 13 17 13 18 20 25 24 34 33 34 26 22 15 7 6 10 13 12 24 30 26 29 38 36 46 38 44 52 50 44 47 49 50 44 38 43 44 45 44
17 16 5 6 9 7 21 22 9 17 20 22 29 22 29 28 22 19 17 6 10 10 22 28 33 35 40 38 41 30 41 50 52 51 49 57 60 61 52 53 53 49 51 51
12 4 5 12 4 7 19 15 19 23 24 26 29 16 6 25 24 29 23 26 20 18 25 30 31 37 37 36 40 39 45 49 46 53 51 55 56 64 65 72 65 57 65 60
18 6 6 13 8 14 15 21 28 31 25 20 24 14 12 11 20 27 31 22 17 23 30 30 35 38 32 43 39 42 42 50 53 47 50 54 57 54 62 73 78 80 66 58
19 21 11 9 19 19 19 24 12 9 17 13 24 6 15 16 20 11 3 11 24 29 34 42 44 40 47 42 40 40 45 48 43 55 66 62 66 73 78 75 71 76 75 66
19 21 23 15 8 15 14 8 3 7 12 21 29 17 13 19 15 2 2 16 28 29 34 36 39 46 47 46 39 38 42 44 57 66 65 59 64 68 69 75 74 76 79 82
13 10 15 6 4 8 3 7 12 4 15 11 14 10 20 28 21 21 25 32 31 31 34 41 38 41 44 43 43 43 42 50 57 63 64 71 76 83 90 85 83 86 88 84
10 10 16 23 8 15 17 8 9 6 4 10 18 11 4 13 2 10 17 27 29 31 37 39 46 45 42 45 49 48 56 57 64 72 83 92 85 77 80 80 82 82 83 86
21 9 7 6 18 21 18 20 10 6 6 5 7 7 10 10 15 16 26 27 34 38 40 42 43 44 49 48 47 54 58 69 76 79 89 87 82 80 81 81 76 74 75 73
4 8 20 25 9 8 18 19 13 6 13 8 10 14 20 9 17 21 28 29 34 39 46 45 51 56 59 51 51 57 66 76 75 80 91 83 81 81 84 75 71 68 67 69
6 11 13 23 22 13 10 16 14 13 12 20 12 12 21 29 19 32 27 34 40 45 43 45 51 55 52 54 57 59 66 76 80 89 87 85 81 79 70 72 73 71 71 70
8 10 15 13 26 17 14 20 20 17 14 19 21 29 30 9 11 23 30 37 43 44 43 49 51 50 56 55 58 64 78 86 91 85 83 83 78 69 69 68 65 62 60 65
5 15 22 27 34 32 30 28 26 28 27 26 29 34 19 15 17 23 36 43 41 45 50 50 51 57 58 66 68 74 72 88 85 80 75 74 70 65 64 62 57 58 53 54
15 17 19 27 30 33 36 32 31 35 34 34 34 25 21 28 19 25 39 35 35 45 51 51 55 54 57 62 74 66 83 97 77 69 71 65 61 62 59 55 52 40 39 39
18 16 16 27 28 31 30 25 29 31 29 23 20 17 13 22 32 38 32 32 41 41 47 52 52 51 58 59 61 82 98 79 61 67 62 58 59 58 51 43 36 26 22 21
15 16 16 22 27 34 29 28 13 9 15 21 18 19 15 21 29 41 33 32 38 45 49 47 48 52 51 59 77 95 81 62 58 57 61 55 57 50 42 29 19 11 5 8
22 17 21 22 24 30 30 23 12 10 14 25 18 21 27 37 40 32 46 44 43 51 50 44 47 50 54 72 86 82 63 55 58 59 58 51 47 40 27 21 22 26 28 36
21 19 17 23 27 22 21 18 25 16 11 17 25 24 29 38 22 23 49 41 43 45 45 43 51 51 66 73 80 63 56 55 59 54 51 43 35 28 26 25 30 42 41 39
17 21 27 23 23 29 22 12 12 11 3 13 19 23 31 22 28 37 39 39 44 47 41 47 47 50 60 75 64 54 52 58 54 46 39 30 24 25 26 30 33 39 51 53
18 11 22 23 29 18 32 28 13 12 6 15 22 26 28 28 30 34 40 45 47 41 40 45 47 47 64 64 56 49 50 52 45 37 30 25 25 28 32 39 49 56 58 64
20 18 5 11 5 10 10 9 18 4 9 19 22 27 31 34 40 34 35 43 46 38 39 46 45 47 62 56 49 45 44 44 37 28 27 27 28 32 38 45 52 62 66 74
6 4 16 13 19 21 30 31 20 13 7 11 21 30 34 39 38 31 38 43 35 32 38 50 44 52 56 51 45 40 36 31 35 28 26 29 33 36 43 47 55 62 70 78
17 10 11 12 14 27 16 24 18 12 11 14 24 29 32 32 25 29 37 45 29 26 37 48 46 51 47 45 43 42 35 25 31 35 39 44 50 50 52 57 66 70 77 78
22 19 14 13 12 8 13 4 7 14 21 22 21 26 25 24 27 30 34 31 22 28 42 39 43 43 40 39 41 40 35 35 43 54 58 61 68 72 75 76 76 72 72 73
Wind_Direction_850mb
211 257 293 7 354 328 309 298 294 306 88 24 276 280 294 186 176 202 209 185 215 319 328 329 332 317 318 324 328 327 329 325 322 325 326 305 290 281 268 256 248 249 249 248
248 235 45 338 305 300 300 289 269 246 241 242 266 261 269 264 179 184 165 170 33 338 319 319 317 321 325 325 327 323 325 323 323 323 311 320 319 312 308 307 299 275 270 262
295 64 16 303 206 258 255 267 316 340 333 302 264 260 247 223 125 130 139 179 251 261 317 328 331 327 335 332 325 325 322 325 322 322 313 304 295 292 291 295 292 297 294 285
282 83 319 268 301 312 295 11 345 296 288 283 335 303 296 174 153 155 301 155 273 316 335 342 329 339 335 328 328 322 327 329 325 317 312 311 312 310 301 289 282 277 274 276
37 174 252 243 4 6 289 4 305 286 280 284 281 264 354 111 80 87 189 243 248 337 339 332 339 332 327 329 324 324 326 330 324 320 315 311 305 312 309 308 300 287 271 268
284 16 252 312 334 262 299 289 264 243 242 250 311 277 144 125 152 172 213 231 313 338 331 341 340 326 332 327 316 324 324 326 327 324 316 313 309 309 306 303 300 299 296 287
198 207 157 236 269 202 232 259 290 291 222 231 230 216 101 140 150 94 90 321 345 340 340 342 333 338 334 320 324 321 323 325 326 320 317 309 302 296 297 298 296 294 295 286
256 186 183 159 294 332 306 324 116 228 343 321 318 340 97 76 68 4 32 350 344 331 337 335 336 338 324 322 321 328 324 323 324 320 316 310 306 303 297 293 286 284 282 278
319 210 115 152 257 277 267 298 64 286 298 290 258 74 106 63 41 17 346 339 324 333 338 334 339 328 326 330 334 333 332 330 326 319 312 302 296 294 294 292 290 284 279 281
352 281 192 136 239 225 252 30 242 140 287 295 323 345 81 176 74 253 310 314 318 330 335 346 334 327 335 329 327 330 336 331 320 309 301 301 305 303 302 298 295 293 286 276
295 241 224 168 222 239 192 224 212 321 315 263 304 319 52 118 206 328 327 326 311 339 340 335 324 332 339 336 335 332 334 321 316 308 307 310 305 301 301 298 294 290 289 284
122 302 267 245 111 26 311 301 303 289 283 184 264 269 307 305 31 293 280 294 340 338 335 334 342 341 334 334 337 335 324 313 313 311 313 311 309 308 307 305 303 300 292 282
23 220 256 248 256 150 263 261 240 251 266 265 269 274 294 296 325 333 329 341 338 340 335 344 343 337 336 337 334 328 315 315 313 319 317 315 314 310 308 306 300 294 290 284
27 288 274 257 320 305 243 228 244 273 288 271 259 267 272 46 352 337 339 338 337 331 345 341 338 338 339 338 331 320 314 319 319 318 315 317 318 316 309 306 305 299 295 289
203 260 269 274 282 280 276 280 280 272 263 258 275 286 48 11 331 341 338 338 340 340 338 340 344 342 342 334 328 319 316 322 325 319 318 318 320 319 317 314 311 305 301 301
213 260 280 280 282 283 283 275 272 272 274 268 268 294 97 270 255 8 342 2 348 332 338 345 344 345 339 333 322 319 320 328 327 325 323 323 326 324 322 317 315 312 308 308
204 240 259 273 287 290 280 272 259 256 265 286 316 292 29 28 16 354 24 1 338 339 349 350 347 347 340 327 318 323 331 332 331 328 330 332 330 333 335 329 326 318 311 313
274 267 244 266 277 271 274 282 291 299 292 311 356 10 17 33 10 346 22 341 344 0 356 354 354 343 336 320 324 331 334 337 334 335 335 338 340 344 343 343 352 11 37 111
224 241 268 266 261 269 278 299 242 26 337 27 30 25 6 357 346 315 11 353 358 3 358 358 347 344 325 323 334 335 341 348 342 343 346 347 352 355 9 34 63 79 93 102
223 212 241 259 270 279 282 47 11 339 222 39 28 20 356 348 332 340 342 340 355 353 356 354 351 341 324 331 337 344 349 349 346 351 350 357 1 18 38 57 77 93 95 100
204 222 218 230 247 263 292 126 173 209 58 24 17 2 349 346 337 323 330 354 353 355 356 349 350 344 330 336 346 352 355 352 351 354 359 7 24 45 64 83 91 96 98 104
201 167 245 242 254 244 4 342 339 51 12 10 9 352 346 335 328 326 340 354 353 3 7 356 351 344 333 347 354 358 359 353 0 13 17 33 58 77 90 98 101 100 100 99
246 265 243 221 151 234 102 313 298 349 3 4 0 349 335 325 324 335 350 347 352 9 6 355 351 342 347 357 3 7 2 5 21 36 47 60 80 91 101 106 105 101 101 101
178 225 262 283 167 191 185 190 234 264 103 6 347 333 325 321 317 355 338 348 357 5 2 344 350 349 356 7 12 16 8 29 45 45 54 73 81 94 104 108 108 107 105 104
273 144 265 264 288 286 337 40 25 5 353 350 337 327 329 324 0 345 345 349 13 8 6 347 348 357 6 14 23 21 21 44 61 65 76 81 86 90 92 94 98 102 103 102
277 280 273 290 11 354 319 82 37 347 325 320 323 340 327 357 5 352 349 1 26 14 356 355 353 7 18 27 38 35 53 65 79 80 77 85 90 93 95 94 93 94 94 92